McMinnville, OR

9:53 AM PDT on June 27, 2017 (GMT -0700)
McMinnville Municipal

Weather History for KMMV - November, 2012

Change the Weather History Date:

Friday, November 23, 2012

  Actual Average Record
Temperature  
Mean Temperature 45 °F 44 °F  
Max Temperature 51 °F 50 °F 80 °F (1923)
Min Temperature 38 °F 37 °F 18 °F (1985)
Degree Days  
Heating Degree Days 20 21  
Month to date heating degree days 375 442  
Since 1 July heating degree days 803 1065  
Cooling Degree Days 0 0  
Month to date cooling degree days 0 0  
Year to date cooling degree days 300 215  
Moisture  
Dew Point 43 °F    
Average Humidity 93    
Maximum Humidity 100    
Minimum Humidity 86    
Precipitation  
Precipitation 1.21 in 0.25 in 2.44 in (1942)
Month to date precipitation 5.95 4.86  
Year to date precipitation 40.43 31.72  
Snow  
Snow 0.00 in - - ()
Month to date snowfall 0.0  
Snow Depth 0.00 in    
Sea Level Pressure  
Sea Level Pressure 30.21 in    
Wind  
Wind Speed 3 mph (ESE)    
Max Wind Speed 15 mph    
Max Gust Speed 16 mph    
Visibility 4 miles    
Events Fog , Rain    
T = Trace of Precipitation, MM = Missing Value Source: NWS Daily Summary

Daily Weather History Graph

Daily Weather History Graph

Search for Another Location

Airport or City:

Trip Planner

Search our weather history database for the weather conditions in past years. The results will help you decide how hot, cold, wet, or windy it might be!

Date:

Astronomy

Nov. 23, 2012 Rise Set
Actual Time 7:22 AM PST 4:35 PM PST
Civil Twilight 6:49 AM PST 5:08 PM PST
Nautical Twilight 6:13 AM PST 5:44 PM PST
Astronomical Twilight 5:38 AM PST 6:19 PM PST
Moon 2:02 PM PST (11/23) 2:35 AM PST (11/23)
Length of Visible Light 10h 18m
Length of Day
9h 13m
Waxing Gibbous, 80% of the Moon is Illuminated
Nov 23
Waxing Gibbous
Nov 28
Full
Dec 6
Last Quarter
Dec 13
New
Dec 19
First Quarter

Hourly Weather History & Observations

Time (PST) Temp. Windchill Dew Point Humidity Pressure Visibility Wind Dir Wind Speed Gust Speed Precip Events Conditions
12:11 AM 37.4 °F - 37.4 °F 100% 30.28 in 0.8 mi Calm Calm - N/A   Mist
12:38 AM 39.2 °F - 37.4 °F 93% 30.29 in 0.5 mi Calm Calm - N/A Fog Fog
12:53 AM 39.0 °F - 37.0 °F 93% 30.28 in 1.0 mi Calm Calm - N/A   Mist
12:59 AM 39.2 °F - 37.4 °F 93% 30.27 in 0.2 mi Calm Calm - N/A Fog Fog
1:53 AM 39.9 °F 37.8 °F 37.9 °F 93% 30.28 in 0.2 mi North 3.5 mph - N/A Fog Fog
2:32 AM 41.0 °F - 39.2 °F 93% 30.27 in 0.5 mi Calm Calm - N/A Fog Fog
2:40 AM 39.2 °F - 39.2 °F 100% 30.27 in 0.2 mi Calm Calm - N/A Fog Fog
2:53 AM 39.9 °F 37.8 °F 37.9 °F 93% 30.27 in 0.2 mi SSE 3.5 mph - N/A Fog Fog
3:48 AM 39.2 °F - 37.4 °F 93% 30.27 in 0.5 mi Calm Calm - N/A Fog Fog
3:53 AM 39.9 °F 37.8 °F 37.9 °F 93% 30.27 in 0.5 mi ESE 3.5 mph - N/A Fog Fog
4:10 AM 39.2 °F - 39.2 °F 100% 30.27 in 1.2 mi Calm Calm - N/A   Overcast
4:48 AM 39.2 °F - 39.2 °F 100% 30.26 in 3.0 mi Calm Calm - N/A   Overcast
5:53 AM 41.0 °F - 39.0 °F 93% 30.26 in 6.0 mi Calm Calm - N/A   Overcast
6:08 AM 41.0 °F - 39.2 °F 93% 30.26 in 7.0 mi Calm Calm - N/A   Overcast
6:26 AM 41.0 °F - 39.2 °F 93% 30.26 in 5.0 mi Calm Calm - N/A   Overcast
6:53 AM 42.1 °F - 39.9 °F 92% 30.25 in 4.0 mi Calm Calm - N/A   Overcast
7:07 AM 42.8 °F - 39.2 °F 87% 30.24 in 5.0 mi Calm Calm - N/A   Overcast
7:53 AM 42.1 °F - 39.9 °F 92% 30.25 in 6.0 mi Calm Calm - N/A   Overcast
8:24 AM 42.8 °F - 39.2 °F 87% 30.24 in 5.0 mi Calm Calm - N/A   Overcast
8:53 AM 43.0 °F - 41.0 °F 93% 30.25 in 6.0 mi Calm Calm - 0.00 in Rain Light Rain
9:53 AM 44.1 °F - 41.0 °F 89% 30.24 in 4.0 mi Calm Calm - 0.01 in Rain Light Rain
10:53 AM 44.1 °F 40.1 °F 42.1 °F 93% 30.24 in 3.0 mi North 6.9 mph - 0.07 in Rain Rain
11:24 AM 44.6 °F - 42.8 °F 93% 30.23 in 1.8 mi Calm Calm - 0.08 in Rain Heavy Rain
11:35 AM 44.6 °F 43.1 °F 42.8 °F 93% 30.22 in 0.8 mi NNW 3.5 mph - 0.17 in Rain Heavy Rain
11:42 AM 44.6 °F 43.1 °F 42.8 °F 93% 30.22 in 1.2 mi NNW 3.5 mph - 0.20 in Rain Heavy Rain
11:53 AM 44.1 °F 42.5 °F 42.1 °F 93% 30.23 in 1.5 mi NNW 3.5 mph - 0.24 in Rain Heavy Rain
12:36 PM 46.4 °F 41.9 °F 44.6 °F 93% 30.19 in 4.0 mi SSE 9.2 mph - 0.08 in Rain Light Rain
12:53 PM 46.9 °F - 44.1 °F 90% 30.19 in 5.0 mi SSE 6.9 mph - 0.10 in Rain Light Rain
1:53 PM 46.0 °F 43.1 °F 44.1 °F 93% 30.17 in 4.0 mi ESE 5.8 mph - 0.07 in Rain Rain
2:53 PM 46.9 °F - 44.1 °F 90% 30.14 in 10.0 mi SSE 8.1 mph - 0.07 in Rain Light Rain
3:53 PM 48.9 °F - 46.0 °F 90% 30.14 in 10.0 mi South 6.9 mph - 0.00 in Rain Light Rain
4:08 PM 48.2 °F - 46.4 °F 93% 30.13 in 10.0 mi SSE 9.2 mph - 0.01 in Rain Light Rain
4:53 PM 50.0 °F - 46.9 °F 89% 30.13 in 6.0 mi SE 8.1 mph - 0.09 in Rain Rain
5:25 PM 50.0 °F - 46.4 °F 87% 30.14 in 5.0 mi NNW 3.5 mph - 0.06 in Rain Rain
5:53 PM 50.0 °F - 48.0 °F 93% 30.14 in 6.0 mi Calm Calm - 0.11 in Rain Rain
6:53 PM 51.1 °F - 48.0 °F 89% 30.14 in 6.0 mi Calm Calm - 0.06 in Rain Rain
7:24 PM 51.8 °F - 48.2 °F 88% 30.15 in 10.0 mi NNW 3.5 mph - 0.03 in Rain Light Rain
7:53 PM 50.0 °F - 48.0 °F 93% 30.15 in 5.0 mi Calm Calm - 0.08 in Rain Rain
8:18 PM 50.0 °F - 48.2 °F 94% 30.16 in 7.0 mi Calm Calm - 0.01 in Rain Light Rain
8:53 PM 50.0 °F - 48.0 °F 93% 30.15 in 5.0 mi ENE 3.5 mph - 0.06 in Rain Rain
9:22 PM 50.0 °F - 48.2 °F 94% 30.16 in 10.0 mi SSE 4.6 mph - 0.01 in Rain Light Rain
9:36 PM 50.0 °F - 48.2 °F 94% 30.16 in 7.0 mi Calm Calm - 0.03 in Rain Rain
9:53 PM 50.0 °F - 48.0 °F 93% 30.16 in 4.0 mi Calm Calm - 0.07 in Rain Rain
10:50 PM 50.0 °F - 48.2 °F 94% 30.16 in 5.0 mi Calm Calm - 0.09 in Rain Rain
10:53 PM 50.0 °F - 48.0 °F 93% 30.16 in 5.0 mi East 3.5 mph - 0.10 in Rain Rain
11:32 PM 48.2 °F - 48.2 °F 100% 30.16 in 3.0 mi Calm Calm - 0.05 in Rain Light Rain
11:53 PM 50.0 °F - 48.0 °F 93% 30.17 in 4.0 mi Calm Calm - 0.07 in Rain Light Rain